W1VB-1 Weather Reports


time (UTC)temp
C
wind
direction
speed
KPH
gust
KPH
rain 1hr
cm
rain 24hr
cm
rain mn
cm
humidity
%
barometer
mb
20260902102517 24 0.0 0.0 0.00 2.77 0.03 99 1015.1
20260902101517 24 340 1.6 1.6 0.00 2.79 0.03 99 1015.0
20260902100517 24 340 0.0 1.6 0.00 2.79 0.03 99 1014.9
20260902095517 24 340 0.0 3.2 0.00 2.79 0.03 99 1014.8
20260902094517 24 340 0.0 1.6 0.00 2.79 0.03 99 1014.8
20260902093517 24 342 1.6 3.2 0.00 2.79 0.03 99 1014.6
20260902092517 24 342 1.6 3.2 0.00 2.79 0.03 99 1014.7
20260902091516 24 351 0.0 3.2 0.00 2.79 0.03 99 1014.7
20260902090517 24 352 1.6 3.2 0.00 2.79 0.03 99 1014.6
20260902085517 23 339 1.6 3.2 0.00 2.79 0.03 99 1014.7
20260902084557 24 0.0 0.0 0.00 2.79 0.03 99 1014.7
20260902083536 24 338 0.0 1.6 0.00 2.79 0.03 99 1014.6
20260902082517 24 339 0.0 1.6 0.00 2.79 0.03 99 1014.6
20260902081518 24 347 1.6 4.8 0.00 2.79 0.03 99 1014.6
20260902080617 24 356 3.2 4.8 0.00 2.79 0.03 99 1014.7
20260902075536 24 337 1.6 4.8 0.00 2.79 0.03 99 1014.7
20260902074517 24 356 1.6 4.8 0.00 2.79 0.03 99 1014.8
20260902073517 24 344 1.6 3.2 0.00 2.79 0.03 99 1014.8
20260902072516 24 346 1.6 3.2 0.00 2.79 0.03 99 1014.8
20260902071517 24 347 1.6 3.2 0.00 2.79 0.03 98 1014.8
20260902070518 24 351 1.6 4.8 0.00 2.79 0.03 98 1014.9
20260902065517 24 344 1.6 3.2 0.00 2.79 0.03 98 1014.9
20260902064537 24 347 3.2 4.8 0.03 2.79 0.03 98 1015.1
20260902063517 24 342 3.2 6.4 0.03 2.79 0.03 98 1015.0
20260902062517 23 341 3.2 4.8 0.03 2.79 0.03 98 1015.0
20260902061516 24 319 1.6 4.8 0.03 2.79 0.03 98 1015.0
20260902060517 24 311 0.0 3.2 0.03 2.79 0.03 98 1015.1
20260902055517 24 328 0.0 1.6 0.03 2.79 0.03 98 1015.1
20260902054517 24 341 1.6 6.4 0.00 2.77 0.00 98 1015.0
20260902053517 24 341 0.0 1.6 0.00 2.77 0.00 98 1015.1
20260902052517 24 360 1.6 4.8 0.00 2.77 0.00 98 1015.2
20260902051517 24 29 1.6 4.8 0.00 2.77 0.00 98 1015.0
20260902050517 24 45 3.2 8.0 0.00 2.77 0.00 98 1015.0
20260902045517 24 47 4.8 6.4 0.00 2.77 0.00 98 1015.1
20260902044516 24 54 3.2 4.8 0.00 2.77 0.00 98 1015.2
20260902043517 24 346 3.2 6.4 0.00 2.77 0.00 98 1015.1
20260902042517 24 17 3.2 8.0 0.00 2.77 0.00 98 1015.2
20260902041517 24 15 3.2 4.8 0.00 2.77 0.00 98 1015.3
20260902040537 24 28 1.6 4.8 0.00 2.77 0.00 98 1015.3
20260902035517 24 23 1.6 3.2 0.00 2.77 2.77 98 1015.3
20260902034517 24 5 0.0 3.2 0.00 2.77 2.77 98 1015.5
20260902033517 24 2 1.6 4.8 0.00 2.77 2.77 98 1015.6
20260902032516 24 24 1.6 3.2 0.00 2.77 2.77 98 1015.6
20260902031517 24 46 1.6 1.6 0.00 2.77 2.77 98 1015.7
20260902030517 24 38 0.0 3.2 0.00 2.77 2.77 98 1015.8
20260902025537 24 350 1.6 3.2 0.00 2.77 2.77 98 1015.8
20260902024517 24 349 0.0 3.2 0.00 2.77 2.77 98 1016.0
20260902023517 24 349 1.6 4.8 0.00 2.77 2.77 98 1016.1
20260902022516 24 338 1.6 6.4 0.00 2.77 2.77 98 1016.2
20260902021517 24 341 3.2 6.4 0.00 2.77 2.77 98 1016.3
20260902020557 24 340 3.2 6.4 0.03 2.77 2.77 98 1016.2
20260902015517 23 1 3.2 8.0 0.03 2.77 2.77 98 1016.2
20260902014516 23 350 6.4 8.0 0.03 2.77 2.77 98 1016.2
20260902013517 23 335 3.2 4.8 0.05 2.77 2.77 98 1016.0
20260902012517 23 340 1.6 6.4 0.05 2.77 2.77 98 1015.8
20260902011517 23 339 3.2 6.4 0.08 2.79 2.77 98 1015.6
20260902010517 23 328 1.6 6.4 0.08 2.77 2.74 97 1015.6
20260902005517 23 338 0.0 4.8 0.15 2.77 2.74 97 1015.6
20260902004517 23 328 1.6 4.8 0.18 2.77 2.74 97 1015.6
20260902003537 23 346 1.6 4.8 0.18 2.77 2.72 97 1015.6
20260902002537 23 343 3.2 6.4 0.20 2.77 2.72 97 1015.6
20260902001517 23 314 1.6 3.2 0.23 2.77 2.69 97 1015.6
20260902000517 23 314 1.6 3.2 0.23 2.79 2.67 97 1015.6
20260901235517 23 329 1.6 4.8 0.15 2.77 2.59 97 1015.5
20260901234517 23 336 3.2 4.8 0.15 2.77 2.57 97 1015.4
20260901233517 23 15 3.2 6.4 0.18 2.79 2.54 97 1015.2
20260901232517 23 16 3.2 6.4 0.30 2.84 2.51 97 1015.3
20260901231517 24 21 3.2 8.0 0.28 2.90 2.46 97 1015.5
20260901230517 23 353 6.4 9.7 0.25 2.92 2.44 97 1015.6
20260901225518 23 0 4.8 12.9 0.25 2.95 2.44 96 1015.6
20260901224517 24 17 8.0 14.5 0.25 2.92 2.41 96 1015.7
20260901223517 24 357 9.7 16.1 0.48 2.87 2.36 96 1015.9
20260901222517 23 4 9.7 17.7 1.24 2.72 2.21 96 1015.9
20260901221537 24 337 11.3 17.7 2.16 2.69 2.18 96 1015.7
20260901220517 25 342 11.3 20.9 2.16 2.69 2.18 96 1015.5
20260901215517 24 320 4.8 9.7 2.16 2.74 2.18 96 1015.3
20260901214017 24 24 1.6 6.4 1.98 4.47 2.01 94 1015.0
20260901213017 25 20 4.8 22.5 1.63 4.39 1.65 92 1015.3
20260901212036 26 9 16.1 27.4 0.25 3.51 0.28 89 1015.2
20260901211037 27 54 4.8 12.9 0.00 3.25 0.03 86 1015.3
20260901210038 28 40 6.4 12.9 0.00 3.25 0.03 85 1014.9
20260901205017 29 88 1.6 4.8 0.00 3.25 0.03 84 1014.5
20260901204017 29 212 0.0 4.8 0.00 3.25 0.03 83 1014.4
20260901203017 30 239 1.6 8.0 0.00 3.25 0.03 82 1014.1
20260901202018 30 225 4.8 11.3 0.00 3.25 0.03 80 1014.5
20260901201017 30 223 3.2 14.5 0.00 3.25 0.03 78 1014.3
20260901200017 31 240 4.8 12.9 0.00 3.25 0.03 78 1014.2
20260901195017 31 277 3.2 8.0 0.00 3.25 0.03 80 1014.3
20260901194017 31 338 3.2 6.4 0.00 3.25 0.03 80 1014.4
20260901193017 31 337 4.8 9.7 0.00 3.25 0.03 79 1014.7
20260901192137 31 335 4.8 9.7 0.00 3.25 0.03 79 1014.4
20260901191017 32 334 6.4 14.5 0.00 3.25 0.03 77 1014.5
20260901190017 32 346 8.0 14.5 0.00 3.25 0.03 77 1014.8
20260901185017 32 335 8.0 12.9 0.00 3.25 0.03 80 1014.9
20260901184017 32 7 4.8 11.3 0.00 3.25 0.03 75 1015.2
20260901183017 31 37 6.4 14.5 0.00 3.25 0.03 77 1015.3
20260901182017 31 50 8.0 11.3 0.00 3.25 0.03 81 1015.3
20260901181018 30 29 6.4 11.3 0.00 3.25 0.03 81 1015.4
20260901180017 31 32 6.4 11.3 0.00 3.25 0.03 80 1015.6
20260901175017 32 36 9.7 19.3 0.00 3.25 0.03 76 1015.8
20260901174018 33 10 4.8 11.3 0.00 3.25 0.03 69 1015.8
20260901173017 35 333 3.2 8.0 0.00 3.25 0.03 70 1016.0
20260901172017 35 258 1.6 8.0 0.00 3.25 0.03 70 1016.0
20260901171017 33 231 1.6 4.8 0.00 3.25 0.03 73 1016.2
20260901170017 33 40 1.6 6.4 0.00 3.25 0.03 74 1016.2
20260901165017 33 355 1.6 4.8 0.00 3.25 0.03 74 1016.1
20260901164517 33 319 3.2 6.4 0.00 3.25 0.03 74 1016.2
20260901163017 33 299 0.0 6.4 0.00 3.25 0.03 76 1016.4
20260901162017 33 312 1.6 4.8 0.00 3.25 0.03 77 1016.6
20260901161037 32 56 1.6 4.8 0.00 3.25 0.03 78 1016.7
20260901160017 31 55 3.2 6.4 0.00 3.25 0.03 80 1016.8
20260901155017 31 54 1.6 6.4 0.00 3.25 0.03 84 1016.7
20260901154017 30 32 1.6 4.8 0.00 3.25 0.03 88 1016.8
20260901153018 30 49 3.2 6.4 0.00 3.25 0.03 91 1016.8
20260901152017 29 70 1.6 4.8 0.00 3.25 0.03 94 1016.8
20260901151017 28 15 3.2 4.8 0.00 3.25 0.03 95 1016.9
20260901150037 29 51 0.0 4.8 0.00 3.25 0.03 97 1016.8
20260901145017 28 59 1.6 3.2 0.00 3.25 0.03 98 1016.6
20260901144016 28 337 3.2 4.8 0.00 3.25 0.03 98 1016.6
20260901143017 27 356 3.2 6.4 0.00 3.25 0.03 98 1016.6
20260901142017 27 43 1.6 6.4 0.00 3.25 0.03 99 1016.5
20260901141017 27 59 1.6 6.4 0.00 3.25 0.03 99 1016.3
20260901140037 27 16 4.8 6.4 0.00 3.25 0.03 99 1016.3
20260901135018 27 10 3.2 6.4 0.00 3.25 0.03 99 1016.3
20260901134517 27 26 3.2 6.4 0.00 3.25 0.03 99 1016.3
20260901133517 26 21 3.2 6.4 0.00 3.25 0.03 99 1016.3
20260901132537 26 41 4.8 8.0 0.00 3.25 0.03 99 1016.4
20260901131517 26 34 3.2 6.4 0.00 3.25 0.03 99 1016.3
20260901130517 26 35 4.8 6.4 0.00 3.25 0.03 99 1016.2
20260901125517 26 38 3.2 8.0 0.00 3.25 0.03 99 1016.1
20260901124515 25 6 4.8 8.0 0.00 3.25 0.03 99 1016.2
20260901123517 25 350 4.8 9.7 0.00 3.25 0.03 99 1016.1
20260901121517 25 35 1.6 3.2 0.00 3.25 0.03 99 1015.9
20260901120537 25 53 0.0 3.2 0.00 3.25 0.03 99 1016.0
20260901115517 25 18 1.6 4.8 0.00 3.25 0.03 99 1015.9
20260901114517 24 359 1.6 3.2 0.00 3.25 0.03 99 1015.8
20260901113518 24 44 1.6 3.2 0.00 3.25 0.03 99 1015.7
20260901112516 24 345 0.0 1.6 0.00 3.25 0.03 99 1015.7
20260901111517 24 345 0.0 1.6 0.03 3.25 0.03 99 1015.5
20260901110517 24 345 0.0 1.6 0.03 3.25 0.03 99 1015.4
20260901105517 24 22 1.6 3.2 0.03 3.25 0.03 99 1015.4
20260901104516 24 36 1.6 4.8 0.03 3.25 0.03 99 1015.2
20260901103518 24 5 3.2 4.8 0.03 3.25 0.03 99 1015.2